Regional Weather Roundup
Issued by NWS Little Rock, AR

Home | Current Version | Previous Version | Text Only | Print | Product List | Glossary Off
Versions: 1 2 3 4 5 6 7 8 9 10 11 12 13 14 15 16 17 18 19 20 21 22 23 24 25 26 27 28 29 30 31 32 33 34 35 36 37 38 39 40 41 42 43 44 45 46 47 48 49 50

000
ASUS44 KLZK 210205
RWRLZK

WEATHER ROUNDUP FOR ARKANSAS
NATIONAL WEATHER SERVICE LITTLE ROCK AR
900 PM CDT WED AUG 20 2014

NOTE: "FAIR" INDICATES FEW OR NO CLOUDS BELOW 12,000 FEET WITH NO
SIGNIFICANT WEATHER AND/OR OBSTRUCTIONS TO VISIBILITY.

ARZ001-003-010-029-210300-
NORTHWEST ARKANSAS

CITY           SKY/WX    TMP DP  RH WIND       PRES   REMARKS
FAYETTEVILLE   CLEAR     79  66  64 S5        29.98R
FORT SMITH     CLEAR     83  71  67 S3        29.95R HX  87
HARRISON       CLEAR     76  66  71 S5        29.99R
BENTONVILLE    CLEAR     81  63  54 S7        29.98R
ROGERS         CLEAR     80  64  58 S9        29.98R
SILOAM SPGS    CLEAR     79  63  57 S8        29.97R
HIGHFILL       CLEAR     79  64  60 S9        29.96R
SPRINGDALE     CLEAR     81  66  61 SE7       29.99R
$$

ARZ004-005-016-210300-
NORTH CENTRAL ARKANSAS

CITY           SKY/WX    TMP DP  RH WIND       PRES   REMARKS
BATESVILLE     CLEAR     84  70  61 S7        29.99R HX  88
FLIPPIN        CLEAR     82  63  51 CALM      29.97R
MTN HOME       CLEAR     79  64  60 S5        29.97R
$$

ARZ040-041-210300-
WEST CENTRAL ARKANSAS

CITY           SKY/WX    TMP DP  RH WIND       PRES   REMARKS
MENA           CLEAR     81  72  74 CALM      30.00S
MOUNT IDA      CLEAR     78  73  84 CALM      29.98S
$$

ARZ009-017-025-026-028-210300-
NORTHEAST ARKANSAS

CITY           SKY/WX    TMP DP  RH WIND       PRES   REMARKS
CORNING        FAIR      84  73  70 S16       29.97R HX  91
JONESBORO      CLEAR     83  72  69 S9        29.99R HX  88
NEWPORT        CLEAR     81  74  79 SE7       30.00R HX  86
WALNUT RIDGE   CLEAR     82  57  42 S10       29.97R
BLYTHEVILLE    CLEAR     81  75  82 S8        30.01R HX  87
$$

ARZ022-023-033-042-044-210300-
CENTRAL ARKANSAS

CITY           SKY/WX    TMP DP  RH WIND       PRES   REMARKS
LITTLE ROCK    PTCLDY    82  74  76 S6        29.99R HX  88
N LITTLE ROCK  PTCLDY    84  75  74 S5        29.99R HX  93
JACKSONVILLE   CLEAR     83  74  73 S2        29.99R HX  90
SEARCY           N/A     81  75  81 CALM        N/A  HX  87
HOT SPRINGS    CLEAR     84  73  69 S3        30.00R HX  90
RUSSELLVILLE   CLEAR     78  71  79 CALM      29.98R
CLINTON        FAIR      81  72  74 CALM      29.99R
$$

ARZ036-210300-
EAST ARKANSAS

CITY           SKY/WX    TMP DP  RH WIND       PRES   REMARKS
WEST MEMPHIS   CLEAR     79  74  84 S5        30.01R
$$

ARZ050-053-066-070-073-210300-
SOUTHWEST ARKANSAS

CITY           SKY/WX    TMP DP  RH WIND       PRES   REMARKS
ARKADELPHIA    FAIR      82  79  91 CALM      29.99R HX  92
CAMDEN         CLEAR     81  73  78 S5        29.99R HX  85
TEXARKANA      CLEAR     84  72  67 SE6       29.97S HX  89
EL DORADO      CLEAR     81  75  82 E3        30.00F HX  87
DE QUEEN       CLEAR     81  75  82 SE6       29.94R HX  87
$$

ARZ056-057-069-210300-
SOUTHEAST ARKANSAS

CITY           SKY/WX    TMP DP  RH WIND       PRES   REMARKS
PINE BLUFF     CLEAR     80  74  81 S5        30.00R HX  85
STUTTGART      CLEAR     84  73  70 S9        30.01R HX  91
MONTICELLO     CLEAR     84  72  67 S5        30.00S HX  89

$$




USA.gov is the U.S. government's official web portal to all federal, state and local government web resources and services.